BEIDOU 3 (C01) 1 36287U 10001A 21100.90086229 -.00000290 00000-0 00000+0 0 9999 2 36287 1.7739 43.5529 0003933 82.6845 177.7952 1.00272258 41172 BEIDOU 5 (C06) 1 36828U 10036A 21100.60981527 -.00000152 00000-0 00000-0 0 9998 2 36828 54.1735 180.2230 0110149 234.6904 122.5131 1.00282356 39222 BEIDOU 6 (C04) 1 37210U 10057A 21100.90470067 -.00000124 00000-0 00000-0 0 9991 2 37210 0.7442 39.0073 0001882 175.3272 110.5515 1.00273257 38297 BEIDOU 7 (C07) 1 37256U 10068A 21100.82694845 -.00000204 00000-0 00000-0 0 9995 2 37256 50.9764 294.7994 0082314 215.5941 106.3222 1.00276607 37808 BEIDOU 8 (C08) 1 37384U 11013A 21100.78770656 -.00000193 00000-0 00000-0 0 9995 2 37384 59.6872 58.5844 0053500 207.9641 335.9801 1.00272769 36686 BEIDOU 9 (C09) 1 37763U 11038A 21101.07235762 -.00000086 00000-0 00000+0 0 9990 2 37763 54.4613 182.6517 0080794 225.1423 273.4049 1.00279131 35661 BEIDOU 10 (C10) 1 37948U 11073A 21100.89422778 -.00000145 00000-0 00000-0 0 9995 2 37948 51.0750 294.4121 0069592 214.0826 108.4891 1.00268056 34419 BEIDOU 11 (C05) 1 38091U 12008A 21101.17164243 .00000049 00000-0 00000+0 0 9997 2 38091 1.4104 65.7524 0008996 315.4388 298.8667 1.00270725 33495 BEIDOU 12 (C11) 1 38250U 12018A 21100.76324174 -.00000114 00000-0 00000-0 0 9995 2 38250 56.7575 7.8463 0021786 252.3804 18.3824 1.86234313 61027 BEIDOU 13 (C12) 1 38251U 12018B 21100.68614507 -.00000114 00000-0 00000-0 0 9999 2 38251 56.6790 7.2017 0012952 259.4919 4.0095 1.86234207 61029 BEIDOU 15 (C14) 1 38775U 12050B 21100.58894484 .00000057 00000-0 00000-0 0 9994 2 38775 55.1756 126.2711 0015603 315.6201 80.0969 1.86232296 58402 BEIDOU 16 (C02) 1 38953U 12059A 21100.98147941 -.00000185 00000-0 00000-0 0 9997 2 38953 1.8090 84.8000 0009292 284.1492 267.8158 1.00272484 31065 BEIDOU 17 (C31) 1 40549U 15019A 21101.07405785 -.00000164 00000-0 00000+0 0 9990 2 40549 52.5986 317.7671 0036613 187.0279 177.9032 1.00280971 22106 BEIDOU 18 (C57) 1 40748U 15037A 21100.83494345 -.00000114 00000-0 00000-0 0 9990 2 40748 55.9433 6.3256 0005587 3.0185 270.2051 1.86233314 38850 BEIDOU 19 (C58) 1 40749U 15037B 21101.16778017 -.00000113 00000-0 00000+0 0 9997 2 40749 55.9462 6.3016 0006434 330.1186 302.6600 1.86232193 38858 BEIDOU 20 (C18) 1 40938U 15053A 21100.46090365 -.00000115 00000-0 00000+0 0 9992 2 40938 52.1682 280.8315 0047565 189.4911 346.9567 1.00253111 20351 BEIDOU IGSO-6 (C13) 1 41434U 16021A 21101.02648847 -.00000160 00000-0 00000+0 0 9997 2 41434 57.4701 57.3479 0039740 217.0859 31.0595 1.00283085 18494 BEIDOU-2 G7 (C03) 1 41586U 16037A 21100.83256979 -.00000364 00000-0 00000-0 0 9998 2 41586 1.5595 65.2103 0010061 13.5790 170.6701 1.00267124 17802 BEIDOU-3 M1 (C19) 1 43001U 17069A 21100.51085640 .00000057 00000-0 00000-0 0 9996 2 43001 55.3306 126.2158 0011840 287.4051 212.1663 1.86231736 23337 BEIDOU-3 M2 (C20) 1 43002U 17069B 21100.22942485 .00000058 00000-0 00000-0 0 9995 2 43002 55.3307 126.2610 0010211 305.7526 48.6999 1.86231464 23314 BEIDOU-3 M3 (C27) 1 43107U 18003A 21100.97696762 -.00000115 00000-0 00000+0 0 9990 2 43107 55.3857 7.4292 0005363 35.2178 266.2907 1.86232440 22092 BEIDOU-3 M4 (C28) 1 43108U 18003B 21101.10750872 -.00000115 00000-0 00000+0 0 9990 2 43108 55.3794 7.4184 0002869 268.2817 165.9251 1.86232393 22105 BEIDOU-3 M5 (C21) 1 43207U 18018A 21100.37029111 .00000058 00000-0 00000-0 0 9995 2 43207 55.2896 126.3489 0007288 321.3000 38.7177 1.86231641 21479 BEIDOU-3 M6 (C22) 1 43208U 18018B 21100.43696874 .00000057 00000-0 00000-0 0 9998 2 43208 55.2888 126.3510 0009888 296.3282 63.6400 1.86231717 21477 BEIDOU-3 M7 (C29) 1 43245U 18029A 21101.09803860 -.00000113 00000-0 00000+0 0 9992 2 43245 55.3194 5.2218 0001422 358.7484 294.0887 1.86232523 20634 BEIDOU-3 M8 (C30) 1 43246U 18029B 21101.02618359 -.00000114 00000-0 10000-3 0 9999 2 43246 55.3153 5.2557 0005313 350.2175 300.5734 1.86232717 20621 BEIDOU IGSO-7 (C16) 1 43539U 18057A 21100.61569481 -.00000134 00000-0 00000+0 0 9997 2 43539 55.0536 179.5631 0036886 220.1417 133.2134 1.00289742 10168 BEIDOU-3 M9 (C23) 1 43581U 18062A 21100.80183353 -.00000044 00000-0 00000-0 0 9992 2 43581 54.4298 246.9164 0001867 290.4924 59.8097 1.86231746 18363 BEIDOU-3 M10 (C24) 1 43582U 18062B 21100.74878497 -.00000044 00000-0 00000-0 0 9996 2 43582 54.4307 246.9081 0005432 16.0943 29.9435 1.86232001 18378 BEIDOU-3 M11 (C25) 1 43602U 18067A 21100.64563194 -.00000045 00000-0 00000+0 0 9998 2 43602 54.5071 245.4901 0007087 6.9333 12.2568 1.86231578 17867 BEIDOU-3 M12 (C26) 1 43603U 18067B 21100.71164727 -.00000044 00000-0 00000-0 0 9996 2 43603 54.5038 245.4540 0004205 359.9060 334.0220 1.86231506 17879 BEIDOU-3 M13 (C32) 1 43622U 18072A 21100.73183932 .00000056 00000-0 00000-0 0 9996 2 43622 55.2547 125.9069 0008395 283.8147 93.8561 1.86231586 17399 BEIDOU-3 M14 (C33) 1 43623U 18072B 21100.78372475 .00000056 00000-0 00000-0 0 9994 2 43623 55.2554 125.8971 0006541 303.0058 199.6871 1.86231558 17394 BEIDOU-3 M15 (C34) 1 43647U 18078A 21100.63246027 -.00000115 00000-0 10000-3 0 9994 2 43647 55.2114 5.4332 0007747 353.2587 303.2445 1.86232704 16897 BEIDOU-3 M16 (C35) 1 43648U 18078B 21100.76047345 -.00000115 00000-0 10000-3 0 9991 2 43648 55.2075 5.4364 0005716 1.3641 289.5421 1.86232212 16912 BEIDOU-3 G1 (C59) 1 43683U 18085A 21100.90077507 -.00000289 00000-0 00000-0 0 9995 2 43683 1.1662 234.7912 0002988 14.7742 54.0553 1.00275966 9076 BEIDOU-3 M17 (C36) 1 43706U 18093A 21100.51555230 -.00000045 00000-0 00000-0 0 9991 2 43706 54.5107 246.7796 0007745 273.8688 109.4456 1.86231769 16267 BEIDOU-3 M18 (C37) 1 43707U 18093B 21100.68306669 -.00000044 00000-0 00000-0 0 9999 2 43707 54.5119 246.7652 0006833 304.4467 281.9685 1.86231995 16266 BEIDOU-3 IGSO-1 (C38) 1 44204U 19023A 21100.61312421 -.00000209 00000-0 00000-0 0 9995 2 44204 55.9269 57.6514 0015820 205.4328 269.4631 1.00259509 7379 BEIDOU-2 G8 1 44231U 19027A 21101.24205263 -.00000257 00000-0 00000+0 0 9996 2 44231 0.3552 324.3659 0005307 236.8876 230.1042 1.00270582 7091 BEIDOU-3 IGSO-2 (C39) 1 44337U 19035A 21100.69592737 -.00000108 00000-0 00000-0 0 9991 2 44337 55.0846 175.6026 0017579 193.5301 185.3518 1.00252977 6717 BEIDOU-3 M23 (C45) 1 44542U 19061A 21101.05540381 -.00000041 00000-0 10000-3 0 9997 2 44542 54.7358 246.8185 0007701 341.7952 87.5321 1.86231177 10534 BEIDOU-3 M24 (C46) 1 44543U 19061B 21100.49812549 -.00000045 00000-0 10000-3 0 9997 2 44543 54.7355 246.8074 0004724 338.3788 348.0791 1.86231589 10522 BEIDOU-3 IGSO-3 1 44709U 19073A 21100.82809624 -.00000144 00000-0 00000+0 0 9996 2 44709 57.9552 300.8464 0017946 198.5354 102.6652 1.00293669 5469 BEIDOU-3 M21 1 44793U 19078A 21100.49068083 -.00000116 00000-0 10000-3 0 9997 2 44793 55.0590 5.5142 0007494 358.0270 157.9518 1.86232251 9385 BEIDOU-3 M22 1 44794U 19078B 21101.12917971 -.00000114 00000-0 00000+0 0 9991 2 44794 55.0364 5.4900 0005739 355.7614 139.1531 1.86232780 9397 BEIDOU-3 M19 1 44864U 19090A 21100.80676176 .00000056 00000-0 00000-0 0 9991 2 44864 55.1891 126.1394 0017832 266.8685 206.4846 1.86231801 8979 BEIDOU-3 M20 1 44865U 19090B 21100.76935764 .00000056 00000-0 00000-0 0 9998 2 44865 55.1915 126.1714 0016498 280.5785 257.6203 1.86231761 8952 BEIDOU-3 G2 1 45344U 20017A 21101.18591131 -.00000154 00000-0 00000+0 0 9994 2 45344 2.5216 334.8881 0003237 90.8225 280.8451 1.00271480 4290 BEIDOU-3 G3 1 45807U 20040A 21100.97900204 -.00000368 00000-0 00000-0 0 9993 2 45807 2.4392 298.4841 0007790 18.0374 345.7715 1.00266107 3107